Regional Weather Roundup
Issued by NWS Raleigh/Durham, NC

Home | Current Version | Previous Version | Text Only | Print | Product List | Glossary On
Versions: 1 2 3 4 5 6 7 8 9 10 11 12 13 14 15 16 17 18 19 20 21 22 23 24 25 26 27 28 29 30 31 32 33 34 35 36 37 38 39 40 41 42 43 44 45 46 47 48 49 50
000
ASUS42 KRAH 291310
RWRRAH
NORTH CAROLINA WEATHER ROUNDUP
NATIONAL WEATHER SERVICE RALEIGH NC
900 AM EDT WED JUL 29 2015

NOTE: "FAIR" INDICATES FEW OR NO CLOUDS BELOW 12,000 FEET WITH NO
SIGNIFICANT WEATHER AND/OR OBSTRUCTIONS TO VISIBILITY.

NCZ001-053-055-056-065-067-291400-
WESTERN NORTH CAROLINA

CITY           SKY/WX    TMP DP  RH WIND       PRES   REMARKS
ASHEVILLE      SUNNY     72  67  84 CALM      30.11R
JEFFERSON      FOG       67  67 100 CALM      30.16R VSB 1/4
MORGANTON      CLOUDY    72  71  97 CALM      30.12R FOG
HICKORY        CLOUDY    76  71  85 CALM      30.06R
RUTHERFORDTON  CLOUDY    74  73  97 CALM      30.07R
MOUNT AIRY     CLOUDY    75  72  89 CALM      30.09R
BOONE          SUNNY     71  68  89 CALM      30.16S
$$

NCZ021-022-025-041-071-084-088-291400-
CENTRAL NORTH CAROLINA

CITY           SKY/WX    TMP DP  RH WIND       PRES   REMARKS
CHARLOTTE      CLOUDY    77  71  82 S6        30.05R
GREENSBORO     PTSUNNY   77  72  84 SW5       30.05R
WINSTON-SALEM  CLOUDY    76  72  87 VRB3      30.07R
RALEIGH-DURHAM PTSUNNY   79  72  79 S6        30.04R
FORT BRAGG     MOSUNNY   80  72  75 E3        30.01S
FAYETTEVILLE   SUNNY     80  72  76 E5        30.01S
BURLINGTON     CLOUDY    76  72  87 S3        30.05R
LAURINBURG     CLOUDY    79  71  76 SE5       30.03R
$$

NCZ011-015-027-028-043-044-047-080-103-291400-
NORTHEASTERN NORTH CAROLINA

CITY           SKY/WX    TMP DP  RH WIND       PRES   REMARKS
ROCKY MT-WILSO MOSUNNY   81  72  74 S5        30.03R
GREENVILLE     MOSUNNY   81  73  78 CALM      30.04R
WASHINGTON     SUNNY     80  73  80 E3        30.02R
ELIZABETH CITY SUNNY     82  73  74 SE8       30.03R
MANTEO         MOSUNNY   82  71  71 SE6       30.03R
CAPE HATTERAS  SUNNY     83  70  64 E8        30.01R
$$

NCZ078-087-090-091-093-098-101-291400-
SOUTHEASTERN NORTH CAROLINA

CITY           SKY/WX    TMP DP  RH WIND       PRES   REMARKS
LUMBERTON      SUNNY     81  72  74 E6        30.01R
GOLDSBORO      SUNNY     81  73  76 SE3       30.00R
KINSTON        SUNNY     81  72  74 CALM      30.02S
KENANSVILLE      N/A     80  72  77 CALM      30.03R
NEW BERN       SUNNY     81  72  74 E5        30.02R
CHERRY POINT   SUNNY     82  72  71 E6        30.01R
BEAUFORT       SUNNY     82  74  76 E9        29.99S
JACKSONVILLE   SUNNY     81  71  71 NE7       30.00R
WILMINGTON     SUNNY     81  73  76 NE5       29.99R
$$



USA.gov is the U.S. government's official web portal to all federal, state and local government web resources and services.